Location: Biltmore Gardens
(41.6070°N, 83.4666°W)
Time: 15:14:58
(UTC+00:00)

Lacrosse 5 - Pass Details

Date: 14 July 2020
Orbit: 717 x 720 km, 57.0° (Epoch: 09 August)

Event Time Altitude Azimuth Distance (km) Brightness Sun altitude
Exits shadow 05:08:06 49° 76° (ENE) 923 2.4 -26.4°
Drops below altitude 10° 05:11:58 10° 51° (NE) 2,203 4.7 -26.5°
Sets 05:14:22 0° 48° (NE) 3,127 5.6 -26.5°
